GW3416 Weather Reports


time (UTC)temp
F
wind
direction
speed
knots
gust
knots
rain 1hr
in
rain 24hr
in
rain mn
in
humidity
%
barometer
mb
20260506034540 70 29 1.7 5.2 0.00 0.03 0.03 76 1026.6
20260506033540 68 59 0.9 2.6 0.00 0.03 0.03 79 1026.6
20260506032519 68 35 0.9 1.7 0.00 0.03 0.03 79 1026.6
20260506031517 67 24 1.7 4.3 0.00 0.03 0.03 80 1026.6
20260506030517 67 16 1.7 5.2 0.00 0.03 0.03 79 1026.7
20260506025520 67 13 1.7 4.3 0.00 0.03 0.03 79 1026.7
20260506024520 68 18 1.7 4.3 0.00 0.03 0.03 78 1026.8
20260506023520 69 22 0.9 3.5 0.00 0.03 0.03 77 1026.8
20260506022517 69 353 2.6 4.3 0.00 0.03 0.03 77 1026.8
20260506021518 68 8 0.9 4.3 0.00 0.03 0.03 80 1026.8
20260506020521 68 359 1.7 4.3 0.00 0.03 0.03 78 1026.8
20260506015538 68 29 0.9 2.6 0.00 0.03 0.03 80 1026.9
20260506014537 68 14 1.7 4.3 0.00 0.03 0.03 83 1027.0
20260506013518 68 21 0.9 3.5 0.00 0.03 0.03 86 1027.0
20260506012518 67 24 0.9 4.3 0.00 0.03 0.03 89 1027.1
20260506011518 65 278 0.9 3.5 0.00 0.02 0.02 90 1027.2
20260506010519 64 24 0.9 2.6 0.00 0.02 0.02 90 1027.3
20260506005519 65 355 1.7 6.1 0.00 0.02 0.02 90 1027.4
20260506004518 65 3 0.9 2.6 0.00 0.02 0.02 91 1027.5
20260506003519 64 4 0.9 2.6 0.00 0.02 0.02 91 1027.6
20260506002519 64 359 0.9 4.3 0.00 0.02 0.02 90 1027.8
20260506001519 64 341 1.7 5.2 0.00 0.02 0.02 89 1028.0
20260506000600 65 311 1.7 4.3 0.00 0.02 0.02 86 1028.2
20260505235519 66 341 1.7 4.3 0.00 0.02 0.02 85 1028.2
20260505234559 66 54 0.0 1.7 0.00 0.02 0.02 86 1028.2
20260505233519 66 137 0.0 1.7 0.00 0.02 0.02 86 1028.3
20260505232519 66 118 0.0 0.9 0.00 0.02 0.02 87 1028.3
20260505231520 66 132 0.0 1.7 0.02 0.02 0.02 89 1028.4
20260505230519 65 151 0.0 1.7 0.02 0.02 0.02 90 1028.5
20260505225519 65 126 0.0 1.7 0.02 0.02 0.02 91 1028.6
20260505224517 65 160 0.0 0.9 0.02 0.02 0.02 91 1028.8
20260505223519 64 0 0.0 1.7 0.02 0.02 0.02 91 1028.9
20260505222520 64 140 0.9 2.6 0.02 0.02 0.02 91 1028.9
20260505221521 65 147 0.0 1.7 0.00 0.00 0.00 92 1028.9
20260505220518 64 251 0.0 1.7 0.00 0.00 0.00 94 1029.0
20260505215517 64 67 0.0 1.7 0.00 0.00 0.00 94 1029.0
20260505214527 63 302 0.0 0.9 0.00 0.00 0.00 95 1029.2
20260505213526 63 145 0.0 1.7 0.00 0.00 0.00 95 1029.2
20260505212527 62 240 0.0 0.9 0.00 0.00 0.00 95 1029.3
20260505211526 62 0.0 0.0 0.00 0.00 0.00 95 1029.3
20260505210527 61 0.0 0.0 0.00 0.00 0.00 95 1029.3
20260505205527 60 0.0 0.0 0.00 0.00 0.00 95 1029.2
20260505204547 59 0.0 0.0 0.00 0.00 0.00 95 1029.2
20260505203527 59 225 0.0 0.9 0.00 0.00 0.00 95 1029.2
20260505202527 58 195 0.0 0.9 0.00 0.00 0.00 95 1029.1
20260505201548 58 223 0.0 1.7 0.00 0.00 0.00 95 1029.0
20260505200528 57 261 0.0 0.9 0.00 0.00 0.00 95 1028.9
20260505195549 57 0.0 0.0 0.00 0.00 0.00 94 1028.7
20260505194548 56 243 0.0 0.9 0.00 0.00 0.00 94 1028.7
20260505193548 56 0.0 0.0 0.00 0.00 0.00 94 1028.7
20260505192528 56 0.0 0.0 0.00 0.00 0.00 94 1028.7
20260505191548 56 0.0 0.0 0.00 0.00 0.00 94 1028.7
20260505190528 56 0.0 0.0 0.00 0.00 0.00 94 1028.6
20260505185549 56 0.0 0.0 0.00 0.00 0.00 94 1028.6
20260505184529 56 0.0 0.0 0.00 0.00 0.00 94 1028.5
20260505183529 0 0.0 0.0 0.00 0.00 0.00
20260505182529 56 0.0 0.0 0.00 0.00 0.00 94 1028.5
20260505181529 56 0.0 0.0 0.00 0.00 0.00 94 1028.4
20260505180529 56 0.0 0.0 0.00 0.00 0.00 94 1028.3
20260505175529 56 0.0 0.0 0.00 0.00 0.00 94 1028.4
20260505174529 56 0.0 0.0 0.00 0.00 0.00 94 1028.4
20260505173529 56 171 0.0 0.9 0.00 0.00 0.00 94 1028.4
20260505172531 56 181 0.0 0.9 0.00 0.00 0.00 94 1028.4
20260505171529 56 0.0 0.0 0.00 0.00 0.00 94 1028.5
20260505170611 56 0.0 0.0 0.00 0.00 0.00 94 1028.5
20260505165530 56 0.0 0.0 0.00 0.00 0.00 93 1028.5
20260505164529 56 0.0 0.0 0.00 0.00 0.00 93 1028.5
20260505163530 55 0.0 0.0 0.00 0.00 0.00 93 1028.6
20260505162530 55 0.0 0.0 0.00 0.00 0.00 93 1028.6
20260505161531 55 0.0 0.0 0.00 0.00 0.00 93 1028.6
20260505160531 55 0.0 0.0 0.00 0.00 0.00 93 1028.6
20260505152531 55 0.0 0.0 0.00 0.00 0.00 93 1028.7
20260505151531 56 152 0.0 0.0 0.00 0.00 0.00 93 1028.8
20260505150531 56 0.0 0.0 0.00 0.00 0.00 93 1028.9
20260505140520 56 221 0.0 0.9 0.00 0.00 0.00 93 1029.4
20260505124518 56 0.0 0.0 0.00 0.00 0.00 93 1030.0
20260505123522 56 0.0 0.0 0.00 0.00 0.00 93 1030.0
20260505122521 56 176 0.0 0.9 0.00 0.00 0.00 93 1030.0
20260505121518 56 186 0.0 0.0 0.00 0.00 0.00 92 1030.1
20260505120518 56 170 0.0 0.9 0.00 0.00 0.00 92 1030.1
20260505115519 56 175 0.0 0.9 0.00 0.00 0.00 92 1030.1
20260505114559 56 194 0.0 0.9 0.00 0.00 0.00 92 1030.1
20260505113519 56 165 0.0 0.9 0.00 0.00 0.00 92 1030.1
20260505112540 56 0.0 0.0 0.00 0.00 0.00 92 1030.1
20260505111520 56 182 0.0 0.9 0.00 0.00 0.00 93 1030.1
20260505110519 56 164 0.0 0.9 0.00 0.00 0.00 93 1030.2
20260505101520 55 170 0.0 0.9 0.00 0.00 0.00 93 1030.6
20260505100519 55 184 0.0 1.7 0.00 0.00 0.00 92 1030.6
20260505095519 55 0.0 0.0 0.00 0.00 0.00 92 1030.5
20260505094517 55 192 0.0 0.9 0.00 0.00 0.00 92 1030.5
20260505093518 55 168 0.0 0.9 0.00 0.00 0.00 92 1030.5
20260505092517 55 0.0 0.0 0.00 0.00 0.00 92 1030.5
20260505091523 56 158 0.0 0.0 0.00 0.00 0.00 92 1030.5
20260505090519 56 0.0 0.0 0.00 0.00 0.00 91 1030.4
20260505085538 56 161 0.0 0.9 0.00 0.00 0.00 91 1030.4
20260505084539 56 177 0.0 0.9 0.00 0.00 0.00 91 1030.4
20260505083520 57 177 0.0 1.7 0.00 0.00 0.00 90 1030.4
20260505082520 57 158 0.0 0.9 0.00 0.00 0.00 90 1030.4
20260505081518 58 179 0.0 0.9 0.00 0.00 0.00 90 1030.3
20260505080539 58 175 0.0 0.9 0.00 0.00 0.00 90 1030.3
20260505075520 58 179 0.0 1.7 0.00 0.00 0.00 89 1030.4
20260505074518 58 185 0.0 0.9 0.00 0.00 0.00 88 1030.4
20260505073522 59 222 0.0 1.7 0.00 0.00 0.00 88 1030.2
20260505072519 59 201 0.0 0.9 0.00 0.00 0.00 88 1030.2
20260505071520 60 170 0.0 0.9 0.00 0.00 0.00 87 1030.2
20260505070520 60 178 0.0 0.9 0.00 0.00 0.00 87 1030.1
20260505065520 60 194 0.0 1.7 0.00 0.00 0.00 86 1030.0
20260505064520 61 175 0.0 0.9 0.00 0.00 0.00 86 1030.0
20260505063559 61 195 0.0 0.9 0.00 0.00 0.00 85 1030.0
20260505062521 61 187 0.0 0.9 0.00 0.00 0.00 85 1030.0
20260505061540 62 213 0.0 0.9 0.00 0.00 0.00 84 1029.9
20260505060519 62 196 0.0 0.9 0.00 0.00 0.00 84 1029.8
20260505055538 62 209 0.0 1.7 0.00 0.00 0.00 83 1029.9
20260505054517 63 19 0.9 2.6 0.00 0.00 0.00 82 1029.9
20260505053517 63 12 0.9 2.6 0.00 0.00 0.00 81 1029.9
20260505052517 63 38 0.9 1.7 0.00 0.00 0.00 81 1029.8
20260505051517 64 68 0.9 1.7 0.00 0.00 0.00 80 1029.9
20260505050522 64 131 0.0 1.7 0.00 0.00 0.00 80 1030.1
20260505041541 66 74 0.9 2.6 0.00 0.00 0.00 79 1030.2
20260505040523 66 78 0.9 3.5 0.00 0.00 0.00 79 1030.1
20260505035518 67 28 0.0 1.7 0.00 0.00 0.00 79 1030.1